BCS4850 EDDP-LJLJ

Flight info

Callsign BCS4850
Flight time N/A
Altitude 39000
Route GOLAT2S GOLAT T202 TABAT M736 RUDNO DCT LAMSI DCT RADLY DCT OFROZ OFROZ1R
Aircraft B738/M-SDE2E3FGHIRWXY/LB1

Departure

Time 2026-05-06 12:02
Airport Leipzig/Halle Airport (EDDP)

Arrival

Time N/A
Airport Ljubljana Jože Pučnik Airport (LJLJ)
Time Latitude Longitude Altitude Speed Heading
2026-05-06 11:29 51.40811 12.20319 430 ft 0 kts 175°
2026-05-06 11:42 51.40816 12.20319 429 ft 2 kts 175°
2026-05-06 11:42 51.40833 12.20317 439 ft 2 kts 175°
2026-05-06 11:42 51.40849 12.20315 426 ft 2 kts 175°
2026-05-06 11:43 51.40865 12.20313 427 ft 2 kts 175°
2026-05-06 11:43 51.40881 12.20311 428 ft 2 kts 175°
2026-05-06 11:43 51.40897 12.20309 427 ft 2 kts 175°
2026-05-06 11:44 51.40920 12.20284 424 ft 0 kts 84°
2026-05-06 11:51 51.40922 12.20305 424 ft 4 kts 84°
2026-05-06 11:51 51.40929 12.20382 439 ft 9 kts 76°
2026-05-06 11:52 51.40979 12.20468 440 ft 12 kts 44°
2026-05-06 11:52 51.40996 12.20611 439 ft 15 kts 85°
2026-05-06 11:52 51.41005 12.20793 432 ft 18 kts 85°
2026-05-06 11:52 51.41015 12.21007 444 ft 20 kts 86°
2026-05-06 11:53 51.41025 12.21225 447 ft 19 kts 85°
2026-05-06 11:53 51.41036 12.21435 448 ft 19 kts 88°
2026-05-06 11:53 51.41043 12.21638 450 ft 18 kts 87°
2026-05-06 11:53 51.41054 12.21834 452 ft 17 kts 85°
2026-05-06 11:54 51.41063 12.22021 453 ft 17 kts 85°
2026-05-06 11:54 51.41071 12.22204 455 ft 16 kts 86°
2026-05-06 11:54 51.41079 12.22379 456 ft 15 kts 76°
2026-05-06 11:54 51.41088 12.22547 458 ft 15 kts 90°
2026-05-06 11:55 51.41095 12.22714 459 ft 15 kts 86°
2026-05-06 11:55 51.41103 12.22874 457 ft 14 kts 86°
2026-05-06 11:55 51.41109 12.23028 462 ft 13 kts 86°
2026-05-06 11:55 51.41116 12.23172 463 ft 13 kts 85°
2026-05-06 11:56 51.41124 12.23326 464 ft 14 kts 85°
2026-05-06 11:56 51.41131 12.23472 465 ft 13 kts 85°
2026-05-06 11:56 51.41139 12.23628 465 ft 15 kts 86°
2026-05-06 11:56 51.41146 12.23797 463 ft 15 kts 86°
2026-05-06 11:57 51.41154 12.23965 466 ft 15 kts 85°
2026-05-06 11:57 51.41161 12.24135 467 ft 15 kts 85°
2026-05-06 11:57 51.41170 12.24302 467 ft 15 kts 84°
2026-05-06 11:57 51.41178 12.24462 468 ft 14 kts 85°
2026-05-06 11:58 51.41184 12.24622 469 ft 15 kts 88°
2026-05-06 11:58 51.41191 12.24792 470 ft 16 kts 84°
2026-05-06 11:58 51.41202 12.24964 470 ft 15 kts 84°
2026-05-06 11:58 51.41210 12.25134 471 ft 15 kts 88°
2026-05-06 11:59 51.41217 12.25302 472 ft 15 kts 86°
2026-05-06 11:59 51.41241 12.25436 471 ft 11 kts 24°
2026-05-06 11:59 51.41285 12.25416 471 ft 0 kts 331°
2026-05-06 12:00 51.41290 12.25411 468 ft 2 kts 327°
2026-05-06 12:00 51.41315 12.25379 471 ft 8 kts 320°
2026-05-06 12:00 51.41368 12.25305 471 ft 11 kts 320°
2026-05-06 12:01 51.41380 12.25183 470 ft 13 kts 266°
2026-05-06 12:01 51.41371 12.24957 469 ft 43 kts 265°
2026-05-06 12:01 51.41331 12.24085 468 ft 112 kts 266°
2026-05-06 12:01 51.41258 12.22536 489 ft 162 kts 268°
2026-05-06 12:02 51.41178 12.20707 1116 ft 161 kts 269°
2026-05-06 12:02 51.41128 12.18928 1862 ft 164 kts 266°
2026-05-06 12:02 51.41040 12.17108 2535 ft 170 kts 264°
2026-05-06 12:02 51.40937 12.15070 2799 ft 198 kts 263°
2026-05-06 12:03 51.40816 12.12727 3023 ft 222 kts 263°
2026-05-06 12:03 51.40682 12.10170 3436 ft 239 kts 264°
2026-05-06 12:03 51.40539 12.07408 3959 ft 254 kts 264°
2026-05-06 12:03 51.40393 12.04598 4913 ft 254 kts 264°
2026-05-06 12:04 51.40245 12.01748 5730 ft 259 kts 263°
2026-05-06 12:04 51.40092 11.98872 6650 ft 260 kts 263°
2026-05-06 12:04 51.39915 11.95978 7505 ft 262 kts 258°
2026-05-06 12:04 51.39208 11.93320 8348 ft 263 kts 231°
2026-05-06 12:05 51.37904 11.91324 9231 ft 265 kts 217°
2026-05-06 12:05 51.36321 11.89756 10001 ft 270 kts 211°
2026-05-06 12:05 51.34616 11.88240 10260 ft 293 kts 210°
2026-05-06 12:05 51.32762 11.86592 10450 ft 316 kts 211°
2026-05-06 12:06 51.30784 11.84798 10675 ft 336 kts 211°
2026-05-06 12:06 51.28735 11.82917 11208 ft 344 kts 211°
2026-05-06 12:06 51.26602 11.81136 11915 ft 348 kts 202°
2026-05-06 12:06 51.24222 11.80600 12622 ft 357 kts 179°
2026-05-06 12:07 51.21750 11.81170 13420 ft 362 kts 171°
2026-05-06 12:07 51.19292 11.82127 14135 ft 366 kts 168°
2026-05-06 12:07 51.16829 11.83205 14861 ft 368 kts 167°
2026-05-06 12:07 51.14349 11.84298 15577 ft 371 kts 168°
2026-05-06 12:08 51.11846 11.85376 16289 ft 374 kts 168°
2026-05-06 12:08 51.09321 11.86437 17048 ft 377 kts 168°
2026-05-06 12:08 51.06771 11.87487 17761 ft 381 kts 168°
2026-05-06 12:08 51.04191 11.88539 18389 ft 384 kts 168°
2026-05-06 12:09 51.01591 11.89594 18936 ft 388 kts 169°
2026-05-06 12:09 50.98996 11.90645 19469 ft 392 kts 169°
2026-05-06 12:09 50.96341 11.91719 20033 ft 395 kts 169°
2026-05-06 12:09 50.93656 11.92669 20548 ft 396 kts 176°
2026-05-06 12:10 50.90936 11.92316 21029 ft 393 kts 199°
2026-05-06 12:10 50.88424 11.90630 21637 ft 392 kts 210°
2026-05-06 12:10 50.86150 11.88252 22181 ft 394 kts 218°
2026-05-06 12:10 50.83959 11.85621 22682 ft 397 kts 218°
2026-05-06 12:11 50.81783 11.82993 23189 ft 400 kts 218°
2026-05-06 12:11 50.79554 11.80337 23660 ft 403 kts 218°
2026-05-06 12:11 50.77303 11.77702 24188 ft 402 kts 217°
2026-05-06 12:11 50.75051 11.75093 24712 ft 402 kts 217°
2026-05-06 12:12 50.72785 11.72484 25138 ft 404 kts 217°
2026-05-06 12:12 50.70511 11.69869 25567 ft 405 kts 217°